Location: Millers Ferry
(32.0990°N, 87.3680°W)
Time: 22:21:30
(UTC-05:00)

CSL-04 Rocket - Visible Passes

Search period start: 29 April 2016 00:00
Search period end: 09 May 2016 00:00
Orbit: 806 x 860 km, 99.0° (Epoch: 29 April)

Date Brightness Start Highest point End Pass type
(mag) Time Alt. Az. Time Alt. Az. Time Alt. Az.
30 Apr 4.8 05:35:21 10° NNE 05:40:30 48° E 05:45:34 10° S visible
01 May 5.5 05:18:50 10° NE 05:23:33 32° E 05:28:13 10° SSE visible
02 May 6.1 05:02:34 10° NE 05:06:36 22° E 05:10:34 10° SE visible
03 May 6.4 04:46:49 10° ENE 04:49:35 14° E 04:52:19 10° SE visible
07 May 5.6 05:17:59 10° NE 05:22:38 31° E 05:27:15 10° SSE visible
08 May 6.1 05:01:45 10° NE 05:05:40 21° E 05:09:32 10° SE visible
